FW8286 Weather Reports


Display with metric or nautical units.
time (UTC)temp
F
wind
direction
speed
MPH
gust
MPH
rain 1hr
in
rain 24hr
in
rain mn
in
humidity
%
barometer
mb
20260504014029 51 204 7.0 13.0 0.00 0.00 0.00 68 1013.9
20260504013527 51 217 8.0 15.0 0.00 0.00 0.00 67 1014.0
20260504013040 51 211 7.0 15.0 0.00 0.00 0.00 66 1014.0
20260504012532 52 223 9.0 15.0 0.00 0.00 0.00 66 1013.9
20260504012027 51 211 6.0 13.0 0.00 0.00 0.00 66 1014.0
20260504011543 52 228 4.0 11.0 0.00 0.00 0.00 66 1014.0
20260504011026 52 221 5.0 16.0 0.00 0.00 0.00 65 1013.9
20260504010528 52 205 5.0 16.0 0.00 0.00 0.00 65 1013.9
20260504010051 52 215 5.0 19.0 0.00 0.00 0.00 64 1014.0
20260504005528 53 234 4.0 19.0 0.00 0.00 0.00 62 1013.9
20260504005028 53 247 9.0 19.0 0.00 0.00 0.00 59 1013.8
20260504004549 54 236 10.0 19.0 0.00 0.00 0.00 56 1013.5
20260504004027 53 213 5.0 12.0 0.00 0.00 0.00 55 1013.5
20260504003532 54 217 5.0 9.0 0.00 0.00 0.00 55 1013.2
20260504003052 54 209 5.0 12.0 0.00 0.00 0.00 53 1013.2
20260504002528 55 202 7.0 12.0 0.00 0.00 0.00 52 1013.2
20260504002027 55 210 5.0 15.0 0.00 0.00 0.00 51 1013.2
20260504001555 55 219 6.0 19.0 0.00 0.00 0.00 52 1013.2
20260504001028 56 216 9.0 19.0 0.00 0.00 0.00 50 1013.2
20260504000527 56 221 6.0 13.0 0.00 0.00 0.00 50 1013.2
20260504000042 56 214 8.0 17.0 0.00 0.00 0.00 48 1013.2
20260503235528 57 236 7.0 17.0 0.00 0.00 0.00 49 1013.2
20260503235027 57 255 7.0 17.0 0.00 0.00 0.00 47 1013.2
20260503234544 57 217 9.0 17.0 0.00 0.00 0.00 48 1013.3
20260503234028 57 219 6.0 17.0 0.00 0.00 0.00 48 1013.4
20260503233528 58 189 9.0 17.0 0.00 0.00 0.00 47 1013.4
20260503233044 58 210 7.0 17.0 0.00 0.00 0.00 47 1013.3
20260503232530 58 221 8.0 17.0 0.00 0.00 0.00 47 1013.4
20260503232028 58 244 8.0 18.0 0.00 0.00 0.00 48 1013.4
20260503231542 58 218 5.0 18.0 0.00 0.00 0.00 49 1013.4
20260503231028 58 227 8.0 17.0 0.00 0.00 0.00 47 1013.3
20260503230525 58 206 7.0 17.0 0.00 0.00 0.00 47 1013.5
20260503230041 58 234 10.0 18.0 0.00 0.00 0.00 47 1013.5
20260503225528 58 227 10.0 22.0 0.00 0.00 0.00 47 1013.5
20260503225027 58 237 8.0 22.0 0.00 0.00 0.00 46 1013.6
20260503224546 58 232 7.0 20.0 0.00 0.00 0.00 47 1013.5
20260503224027 58 223 9.0 20.0 0.00 0.00 0.00 47 1013.5
20260503223531 58 225 9.0 17.0 0.00 0.00 0.00 47 1013.5
20260503223046 58 200 9.0 17.0 0.00 0.00 0.00 48 1013.5
20260503222528 59 211 9.0 17.0 0.00 0.00 0.00 47 1013.6
20260503222026 58 217 6.0 18.0 0.00 0.00 0.00 48 1013.6
20260503221552 58 245 7.0 19.0 0.00 0.00 0.00 48 1013.5
20260503221028 59 219 12.0 20.0 0.00 0.00 0.00 46 1013.6
20260503220531 59 215 10.0 22.0 0.00 0.00 0.00 47 1013.6
20260503220044 59 175 14.0 22.0 0.00 0.00 0.00 48 1013.5
20260503215528 59 230 8.0 19.0 0.00 0.00 0.00 48 1013.6
20260503215027 59 207 11.0 22.0 0.00 0.00 0.00 50 1013.7
20260503214541 59 203 10.0 24.0 0.00 0.00 0.00 49 1013.5
20260503214027 59 200 15.0 24.0 0.00 0.00 0.00 49 1013.7
20260503213527 59 202 11.0 22.0 0.00 0.00 0.00 47 1013.7
20260503213040 58 198 12.0 22.0 0.00 0.00 0.00 50 1013.7
20260503212530 58 211 12.0 20.0 0.00 0.00 0.00 51 1013.8
20260503212027 59 213 14.0 23.0 0.00 0.00 0.00 47 1013.7
20260503211547 59 231 13.0 23.0 0.00 0.00 0.00 50 1013.7
20260503211030 59 180 11.0 23.0 0.00 0.00 0.00 50 1013.7
20260503210534 59 255 9.0 23.0 0.00 0.00 0.00 49 1013.9
20260503210044 59 224 12.0 26.0 0.00 0.00 0.00 47 1013.8
20260503205528 60 217 10.0 26.0 0.00 0.00 0.00 50 1013.8
20260503205028 59 211 8.0 25.0 0.00 0.00 0.00 47 1013.8
20260503204543 60 217 13.0 22.0 0.00 0.00 0.00 47 1013.8
20260503204034 60 212 10.0 22.0 0.00 0.00 0.00 49 1013.8
20260503203530 59 240 12.0 21.0 0.00 0.00 0.00 50 1014.0
20260503203043 59 218 13.0 27.0 0.00 0.00 0.00 51 1014.0
20260503202529 59 217 11.0 27.0 0.00 0.00 0.00 49 1014.0
20260503202027 59 240 13.0 23.0 0.00 0.00 0.00 49 1014.0
20260503201541 59 219 12.0 23.0 0.00 0.00 0.00 50 1014.0
20260503201031 59 198 14.0 21.0 0.00 0.00 0.00 48 1014.1
20260503200530 59 196 12.0 23.0 0.00 0.00 0.00 50 1014.2
20260503200056 60 229 12.0 23.0 0.00 0.00 0.00 49 1014.1
20260503195530 61 225 9.0 21.0 0.00 0.00 0.00 47 1014.2
20260503195034 61 225 11.0 21.0 0.00 0.00 0.00 49 1014.3
20260503194543 60 271 10.0 20.0 0.00 0.00 0.00 49 1014.5
20260503194027 59 219 12.0 23.0 0.00 0.00 0.00 48 1014.6
20260503193530 59 207 13.0 23.0 0.00 0.00 0.00 48 1014.7
20260503193047 60 205 12.0 20.0 0.00 0.00 0.00 47 1014.8
20260503192527 61 206 7.0 19.0 0.00 0.00 0.00 47 1015.0
20260503192029 61 215 8.0 19.0 0.00 0.00 0.00 47 1015.0
20260503191541 60 205 8.0 19.0 0.00 0.00 0.00 48 1015.0
20260503191031 60 194 8.0 24.0 0.00 0.00 0.00 50 1015.3
20260503190528 59 198 13.0 24.0 0.00 0.00 0.00 49 1015.3
20260503190043 60 208 8.0 24.0 0.00 0.00 0.00 50 1015.3
20260503185529 60 223 12.0 28.0 0.00 0.00 0.00 48 1015.4
20260503185030 59 200 15.0 28.0 0.00 0.00 0.00 50 1015.5
20260503184547 60 230 9.0 19.0 0.00 0.00 0.00 47 1015.5
20260503184030 60 252 9.0 18.0 0.00 0.00 0.00 48 1015.5
20260503183529 61 223 7.0 17.0 0.00 0.00 0.00 52 1015.6
20260503183058 60 212 10.0 20.0 0.00 0.00 0.00 47 1015.6
20260503182529 60 221 10.0 21.0 0.00 0.00 0.00 54 1015.6
20260503182030 59 229 10.0 25.0 0.00 0.00 0.00 52 1015.8
20260503181558 58 215 11.0 25.0 0.00 0.00 0.00 51 1015.7
20260503181027 59 213 12.0 25.0 0.00 0.00 0.00 50 1015.9
20260503180527 59 267 8.0 17.0 0.00 0.00 0.00 55 1015.9
20260503180042 59 223 9.0 22.0 0.00 0.00 0.00 55 1015.9
20260503175527 59 208 12.0 22.0 0.00 0.00 0.00 55 1015.9
20260503175028 59 239 11.0 19.0 0.00 0.00 0.00 51 1016.0
20260503174538 59 247 9.0 21.0 0.00 0.00 0.00 53 1016.2
20260503174028 58 201 9.0 21.0 0.00 0.00 0.00 52 1016.1
20260503173528 59 223 8.0 19.0 0.00 0.00 0.00 54 1016.1
20260503173047 58 253 8.0 19.0 0.00 0.00 0.00 55 1016.3
20260503172531 58 175 11.0 19.0 0.00 0.00 0.00 59 1016.4
20260503172029 58 221 11.0 19.0 0.00 0.00 0.00 54 1016.4
20260503171542 58 263 5.0 19.0 0.00 0.00 0.00 58 1016.5
20260503171028 58 233 8.0 19.0 0.00 0.00 0.00 54 1016.6
20260503170529 58 223 6.0 18.0 0.00 0.00 0.00 55 1016.7
20260503150527 54 222 7.0 19.0 0.00 0.00 0.00 58 1017.4
20260503131033 46 207 7.0 12.0 0.00 0.00 0.00 64 1018.1
20260503130527 46 221 7.0 12.0 0.00 0.00 0.00 64 1018.0
20260503110533 35 216 4.0 7.0 0.00 0.00 0.00 81 1017.9
20260503081546 35 224 2.0 5.0 0.00 0.00 0.00 84 1017.6
20260503081028 35 242 2.0 5.0 0.00 0.00 0.00 85 1017.6
20260503080528 35 186 1.0 5.0 0.00 0.00 0.00 85 1017.7
20260503072528 35 215 3.0 5.0 0.00 0.00 0.00 85 1017.6
20260503072028 35 214 3.0 5.0 0.00 0.00 0.00 85 1017.6
20260503071541 36 217 3.0 5.0 0.00 0.00 0.00 85 1017.6
20260503071028 36 212 3.0 5.0 0.00 0.00 0.00 85 1017.6
20260503070528 36 213 2.0 4.0 0.00 0.00 0.00 86 1017.6
20260503070109 36 213 2.0 4.0 0.00 0.00 0.00 86 1017.6
20260503055027 36 203 3.0 5.0 0.00 0.00 0.00 85 1017.9
20260503054543 37 199 2.0 4.0 0.00 0.00 0.00 85 1018.1
20260503054029 37 198 2.0 4.0 0.00 0.00 0.00 85 1018.0
20260503053528 37 198 2.0 4.0 0.00 0.00 0.00 85 1018.0
20260503053049 37 198 2.0 4.0 0.00 0.00 0.00 84 1018.1
20260503052529 37 198 2.0 4.0 0.00 0.00 0.00 84 1018.0
20260503052029 37 198 2.0 4.0 0.00 0.00 0.00 84 1018.1
20260503051553 37 198 2.0 4.0 0.00 0.00 0.00 84 1018.0
20260503051027 38 198 2.0 4.0 0.00 0.00 0.00 84 1018.1
20260503050528 38 198 2.0 4.0 0.00 0.00 0.00 83 1018.1
20260503050045 38 198 2.0 4.0 0.00 0.00 0.00 83 1018.1
20260503045528 38 198 2.0 4.0 0.00 0.00 0.00 83 1018.1
20260503045031 38 197 3.0 5.0 0.00 0.00 0.00 83 1018.1
20260503044543 38 196 2.0 5.0 0.00 0.00 0.00 82 1018.1
20260503044028 39 196 3.0 5.0 0.00 0.00 0.00 82 1018.1
20260503043528 39 205 3.0 5.0 0.00 0.00 0.00 81 1018.1
20260503043044 40 202 3.0 6.0 0.00 0.00 0.00 81 1018.1
20260503042528 40 203 3.0 6.0 0.00 0.00 0.00 81 1018.1
20260503042028 40 200 4.0 6.0 0.00 0.00 0.00 80 1018.1
20260503041543 40 200 3.0 6.0 0.00 0.00 0.00 81 1018.2
20260503041031 40 211 3.0 6.0 0.00 0.00 0.00 81 1018.1
20260503040527 40 210 3.0 6.0 0.00 0.00 0.00 81 1018.1
20260503040049 40 205 2.0 5.0 0.00 0.00 0.00 82 1018.3
20260503035528 40 207 3.0 5.0 0.00 0.00 0.00 82 1018.3
20260503035028 40 196 1.0 4.0 0.00 0.00 0.00 82 1018.2
20260503034542 40 196 1.0 5.0 0.00 0.00 0.00 81 1018.3
20260503034028 40 196 2.0 5.0 0.00 0.00 0.00 81 1018.3
20260503033527 40 196 3.0 5.0 0.00 0.00 0.00 81 1018.3
20260503033048 40 194 2.0 5.0 0.00 0.00 0.00 81 1018.3
20260503032529 40 195 3.0 5.0 0.00 0.00 0.00 81 1018.3
20260503032028 40 193 2.0 4.0 0.00 0.00 0.00 81 1018.3
20260503031541 40 193 2.0 5.0 0.00 0.00 0.00 81 1018.4
20260503031029 40 193 2.0 6.0 0.00 0.00 0.00 81 1018.4
20260503030529 40 192 3.0 6.0 0.00 0.00 0.00 81 1018.4
20260503030051 40 190 3.0 4.0 0.00 0.00 0.00 80 1018.4
20260503025528 40 194 2.0 4.0 0.00 0.00 0.00 80 1018.4
20260503025029 40 194 2.0 5.0 0.00 0.00 0.00 80 1018.4
20260503024544 40 194 2.0 5.0 0.00 0.00 0.00 81 1018.5
20260503024028 40 195 2.0 5.0 0.00 0.00 0.00 81 1018.6
20260503023527 40 194 2.0 4.0 0.00 0.00 0.00 80 1018.6
20260503023044 40 194 2.0 5.0 0.00 0.00 0.00 80 1018.7
20260503022527 41 194 3.0 5.0 0.00 0.00 0.00 80 1018.7
20260503022036 40 196 3.0 5.0 0.00 0.00 0.00 80 1018.6
20260503021540 40 196 3.0 5.0 0.00 0.00 0.00 80 1018.6
20260503021030 40 194 3.0 5.0 0.00 0.00 0.00 80 1018.4
20260503020527 41 195 3.0 6.0 0.00 0.00 0.00 80 1018.5
20260503020041 40 196 3.0 6.0 0.00 0.00 0.00 79 1018.5
20260503015528 40 200 3.0 5.0 0.00 0.00 0.00 80 1018.6
20260503015027 40 188 2.0 5.0 0.00 0.00 0.00 80 1018.5
20260503014546 40 193 2.0 6.0 0.00 0.00 0.00 80 1018.5